Location: Gajan
(43.0218°N, 1.1244°E)
Time: 16:19:32
(UTC+00:00)

Cosmos 1603 - Pass Details

Date: 22 April 2021
Orbit: 830 x 860 km, 71.0° (Epoch: 13 May)

Event Time Altitude Azimuth Distance (km) Brightness Sun altitude
Rises 22:30:48 0° 334° (NNW) 3,433 8.0 -31.3°
Reaches altitude 10° 22:33:17 10° 333° (NNW) 2,489 7.0 -31.5°
Enters shadow 22:37:51 58° 318° (NW) 990 4.2 -31.8°
